Tracking 27126 objects as of 31-Mar-2023
HD Live streaming from Space Station
objects crossing your sky now

A-1 (ASTERIX)

Track A-1 (ASTERIX) now!
10-day predictions
A-1 (ASTERIX) is classified as:


NORAD ID: 1778
Int'l Code: 1965-096A
Perigee: 530.0 km
Apogee: 1,647.5 km
Inclination: 34.3 °
Period: 106.9 minutes
Semi major axis: 7459 km
RCS: 0.3783 m2 (medium)
Launch date: November 26, 1965
Source: France (FR)
Launch site: HAMMA GUIRA SPACE TRACK RANGE (HGSTR)
Your satellite tracking list
Your tracking list is empty




NASA's NSSDC Master Catalog

Two Line Element Set (TLE):
1 01778U 65096A   23089.85563465  .00001433  00000-0  38329-3 0  9992
2 01778  34.2563 147.9800 0749002 194.4212 163.3923 13.47460256806179
Source of the keplerian elements: AFSPC